Weather History for KART - October, 2012

Change the Weather History Date:

Thursday, October 18, 2012

  Actual Average Record
Temperature  
Mean Temperature 58 °F 47 °F  
Max Temperature 71 °F 57 °F 80 °F (1998)
Min Temperature 45 °F 38 °F 16 °F (1972)
Degree Days  
Heating Degree Days 7 18  
Month to date heating degree days 222 267  
Since 1 July heating degree days 408 541  
Cooling Degree Days 0 0  
Month to date cooling degree days 0 0  
Year to date cooling degree days 606 359  
Growing Degree Days 8 (Base 50)    
Moisture  
Dew Point 43 °F    
Average Humidity 60    
Maximum Humidity 82    
Minimum Humidity 37    
Precipitation  
Precipitation 0.00 in 0.11 in 1.24 in (1967)
Month to date precipitation 2.02 2.20  
Year to date precipitation 28.08 27.72  
Sea Level Pressure  
Sea Level Pressure 29.83 in    
Wind  
Wind Speed 9 mph (SSE)    
Max Wind Speed 20 mph    
Max Gust Speed 32 mph    
Visibility 10 miles    
Events      
T = Trace of Precipitation, MM = Missing Value Source: NWS Daily Summary

Daily Weather History Graph

Daily Weather History Graph

Search for Another Location

Airport or City:

Trip Planner

Search our weather history database for the weather conditions in past years. The results will help you decide how hot, cold, wet, or windy it might be!

Date:

Astronomy

Oct. 18, 2012 Rise Set
Actual Time 7:23 AM EDT 6:14 PM EDT
Civil Twilight 6:53 AM EDT 6:43 PM EDT
Nautical Twilight 6:20 AM EDT 7:17 PM EDT
Astronomical Twilight 5:46 AM EDT 7:50 PM EDT
Moon 11:09 AM EDT (10/18) 8:39 PM EDT (10/18)
Length of Visible Light 11h 50m
Length of Day
10h 51m
Waxing Crescent, 14% of the Moon is Illuminated
Oct 18
Waxing Crescent
Oct 21
First Quarter
Oct 29
Full
Nov 6
Last Quarter
Nov 13
New

Hourly Weather History & Observations

Time (EDT) Temp. Windchill Dew Point Humidity Pressure Visibility Wind Dir Wind Speed Gust Speed Precip Events Conditions
12:56 AM 60.1 °F - 37.9 °F 44% 29.85 in 10.0 mi SSE 6.9 mph - N/A   Overcast
1:56 AM 57.0 °F - 37.0 °F 47% 29.85 in 10.0 mi SSE 4.6 mph - N/A   Partly Cloudy
2:56 AM 54.0 °F - 37.9 °F 55% 29.85 in 10.0 mi Calm Calm - N/A   Clear
3:56 AM 55.9 °F - 39.0 °F 53% 29.84 in 10.0 mi SSE 5.8 mph - N/A   Clear
4:56 AM 54.0 °F - 39.9 °F 59% 29.84 in 10.0 mi SE 4.6 mph - N/A   Clear
5:56 AM 48.2 °F - 41.0 °F 76% 29.84 in 10.0 mi East 4.6 mph - N/A   Clear
6:56 AM 52.0 °F - 42.1 °F 69% 29.86 in 10.0 mi SE 3.5 mph - N/A   Clear
7:56 AM 46.0 °F 43.9 °F 41.0 °F 83% 29.86 in 10.0 mi East 4.6 mph - N/A   Clear
8:56 AM 57.9 °F - 45.0 °F 62% 29.86 in 10.0 mi SSE 8.1 mph 17.3 mph N/A   Clear
9:56 AM 62.6 °F - 46.4 °F 55% 29.86 in 10.0 mi SSE 10.4 mph 20.7 mph N/A   Clear
10:56 AM 64.9 °F - 46.0 °F 50% 29.85 in 10.0 mi South 15.0 mph 24.2 mph N/A   Clear
11:56 AM 66.2 °F - 44.6 °F 46% 29.84 in 10.0 mi South 10.4 mph 28.8 mph N/A   Clear
12:56 PM 68.0 °F - 45.0 °F 43% 29.82 in 10.0 mi SSE 18.4 mph 26.5 mph N/A   Clear
1:32 PM 69.8 °F - 46.4 °F 43% 29.80 in 1.5 mi SSE 13.8 mph 21.9 mph N/A   Haze
1:47 PM 69.8 °F - 44.6 °F 40% 29.80 in 10.0 mi SSE 15.0 mph 25.3 mph N/A   Clear
1:56 PM 69.1 °F - 44.1 °F 40% 29.79 in 10.0 mi SSE 16.1 mph 25.3 mph N/A   Clear
2:56 PM 69.1 °F - 43.0 °F 39% 29.79 in 10.0 mi South 9.2 mph 24.2 mph N/A   Clear
3:56 PM 68.0 °F - 44.1 °F 42% 29.79 in 10.0 mi SSE 15.0 mph 26.5 mph N/A   Clear
4:56 PM 66.0 °F - 44.1 °F 45% 29.81 in 10.0 mi SSE 12.7 mph 19.6 mph N/A   Clear
5:56 PM 64.0 °F - 43.0 °F 46% 29.82 in 10.0 mi SSE 8.1 mph - N/A   Clear
6:56 PM 63.0 °F - 44.1 °F 50% 29.82 in 10.0 mi SE 8.1 mph 16.1 mph N/A   Clear
7:56 PM 64.0 °F - 43.0 °F 46% 29.82 in 10.0 mi SSE 10.4 mph 24.2 mph N/A   Clear
8:56 PM 64.0 °F - 44.1 °F 48% 29.82 in 10.0 mi South 13.8 mph 29.9 mph N/A   Clear
9:56 PM 63.0 °F - 44.1 °F 50% 29.84 in 10.0 mi SSE 9.2 mph 18.4 mph N/A   Partly Cloudy
10:56 PM 62.1 °F - 45.0 °F 53% 29.83 in 10.0 mi SSE 8.1 mph 18.4 mph N/A   Mostly Cloudy
11:56 PM 61.0 °F - 46.0 °F 58% 29.83 in 10.0 mi SSE 8.1 mph 16.1 mph N/A   Clear